Location: Jonesport
(44.5330°N, 67.5990°W)
Time: 01:50:43
(UTC-04:00)

Iridium 35 - Visible Passes

Search period start: 04 September 2015 00:00
Search period end: 14 September 2015 00:00
Orbit: 776 x 779 km, 86.4° (Epoch: 02 September)

Date Brightness Start Highest point End Pass type
(mag) Time Alt. Az. Time Alt. Az. Time Alt. Az.
04 Sep 7.6 03:28:01 10° NNE 03:31:41 20° ENE 03:35:31 10° ESE visible
04 Sep 5.2 05:07:46 10° NNW 05:12:52 54° W 05:17:55 10° SSW visible
05 Sep 8.1 02:56:25 10° NE 02:57:40 11° ENE 02:59:14 10° E visible
05 Sep 5.1 04:34:08 10° N 04:39:23 85° E 04:44:37 10° S visible
06 Sep 6.0 04:00:44 10° N 04:05:46 47° E 04:10:49 10° SSE visible
07 Sep 7.0 03:27:38 10° NNE 03:32:01 27° ENE 03:36:28 10° SE visible
07 Sep 5.5 05:08:04 10° NNW 05:12:54 38° W 05:17:39 10° SSW visible
08 Sep 7.8 02:55:05 10° NE 02:58:06 16° ENE 03:01:19 10° ESE visible
08 Sep 5.0 04:34:17 10° N 04:39:29 68° W 04:44:39 10° S visible
09 Sep 5.3 04:00:44 10° N 04:05:58 68° E 04:11:09 10° SSE visible
10 Sep 6.4 03:27:27 10° NNE 03:32:17 38° E 03:37:09 10° SSE visible
10 Sep 6.0 05:08:31 10° NNW 05:12:54 27° W 05:17:11 10° SW visible
11 Sep 7.2 02:54:30 10° NNE 02:58:28 22° ENE 03:02:32 10° SE visible
11 Sep 5.2 04:34:31 10° NNW 04:39:32 48° W 04:44:30 10° SSW visible
12 Sep 7.8 02:22:25 10° NE 02:24:28 13° ENE 02:26:49 10° E visible
12 Sep 4.9 04:00:50 10° N 04:06:05 86° W 04:10:11 17° S visible
13 Sep 5.7 03:27:23 10° N 03:32:30 54° E 03:35:41 22° SSE visible
13 Sep 6.4 05:09:07 10° NW 05:12:51 19° W 05:16:05 11° WSW visible
